Home   Weather   Moncton   Past weeks

Flag for Canada Past Weather in Moncton, New Brunswick, Canada — Yesterday and Last 2 Weeks

Now
59 °F

Partly sunny.


Feels Like: 59 °F
Forecast: N/A
Wind: 5 mph from East

Location: Moncton

Current Time: Sep 30, 2016 at 7:03:10 PM

Latest Report: Sep 30, 2016 at 6:00 PM


Visibility: 15 mi

Pressure: 30.45 "Hg

Humidity: 59%

Dew Point: 45 °F

Location of MonctonLocation

Past Weather in Moncton — Graph

°F

Moncton Temperature Yesterday

Maximum temperature yesterday: 57 °F (at 3:00 PM)
Minimum temperature yesterday: 39 °F (at 10:00 PM)
Average temperature yesterday: 50 °F

High & Low Weather Summary for the Past Weeks

 TemperatureHumidityPressure
High75 °F (Sep 21, 1:00 PM)100% (Sep 19, 4:00 AM)30.55 "Hg (Sep 19, 4:00 AM)
Low34 °F (Sep 30, 5:00 AM)34% (Sep 30, 4:00 PM)29.84 "Hg (Sep 25, 4:00 AM)
Average54 °F81%30.11 "Hg
* Reported Sep 15 6:00 PM — Sep 30 6:00 PM, Moncton, Weather by CustomWeather, © 2016

Note: Actual official high and low records may vary slightly from our data, if they occured in-between our weather recording intervals... More about our weather records

Advertising

Moncton Weather History for the Previous 24 Hours

Scroll right to see more
 ConditionsComfort  
Time TempWeatherWind HumidityBarometerVisibility
6:00 PM
Fri, Sep 30
59 °FPartly sunny.5 mph59%30.45 "Hg15 mi
5:00 PM64 °FPartly sunny.5 mph43%30.45 "Hg15 mi
4:00 PM64 °FScattered clouds.3 mph34%30.46 "Hg15 mi
3:00 PM63 °FScattered clouds.8 mph39%30.48 "Hg15 mi
2:00 PM63 °FScattered clouds.7 mph39%30.50 "Hg15 mi
1:00 PM59 °FScattered clouds.8 mph48%30.51 "Hg15 mi
12:00 PM55 °FScattered clouds.8 mph63%30.53 "Hg15 mi
11:00 AM50 °FScattered clouds.7 mph76%30.54 "Hg15 mi
10:00 AM45 °FPassing clouds.9 mph87%30.54 "Hg15 mi
9:00 AM39 °FPassing clouds.8 mph93%30.55 "Hg15 mi
8:00 AM34 °FPassing clouds.6 mph93%30.53 "Hg15 mi
7:00 AM34 °FPassing clouds.8 mph100%30.53 "Hg15 mi
6:00 AM34 °FClear.12 mph100%30.53 "Hg15 mi
5:00 AM34 °FClear.7 mph100%30.53 "Hg15 mi
4:00 AM36 °FClear.8 mph93%30.52 "Hg15 mi
3:00 AM37 °FClear.10 mph93%30.52 "Hg15 mi
2:00 AM37 °FClear.8 mph93%30.53 "Hg15 mi
1:00 AM37 °FClear.6 mph93%30.53 "Hg15 mi
12:00 AM37 °FClear.7 mph93%30.55 "Hg15 mi
11:00 PM
Thu, Sep 29
39 °FClear.8 mph93%30.55 "Hg15 mi
10:00 PM39 °FClear.6 mph93%30.55 "Hg15 mi
9:00 PM43 °FClear.2 mph93%30.54 "Hg15 mi
8:00 PM43 °FPassing clouds.5 mph93%30.53 "Hg15 mi
7:00 PM46 °FPassing clouds.6 mph82%30.53 "Hg15 mi
Weather by CustomWeather, © 2016

See weather overviewHow to use our weather pages